Colorado City, AZ

3:57 PM MST on November 13, 2019 (GMT -0700)
Colorado City Municipal

Weather History for KAZC - September, 2019

Change the Weather History Date:

Sunday, September 15, 2019

  Actual Average (KSGU) Record (KSGU)
Temperature  
Mean Temperature 70 °F -  
Max Temperature 91 °F 92 °F 103 °F (1971)
Min Temperature 50 °F 57 °F 42 °F (1941)
Cooling Degree Days 6    
Growing Degree Days 20 (Base 50)    
Moisture  
Dew Point 36 °F    
Average Humidity 28    
Maximum Humidity 47    
Minimum Humidity 14    
Precipitation  
Precipitation 0.00 in - - ()
Sea Level Pressure  
Sea Level Pressure 30.13 in    
Wind  
Wind Speed 4 mph (SE)    
Max Wind Speed 15 mph    
Max Gust Speed 28 mph    
Visibility 10 miles    
Events      
Averages and records for this station are not official NWS values.
T = Trace of Precipitation, MM = Missing Value Source: NWS Daily Summary

Daily Weather History Graph

Daily Weather History Graph

Search for Another Location

Airport or City:

Astronomy

Sep. 15, 2019 Rise Set
Actual Time 6:14 AM MST 6:39 PM MST
Civil Twilight 5:48 AM MST 7:05 PM MST
Nautical Twilight 5:17 AM MST 7:36 PM MST
Astronomical Twilight 4:46 AM MST 8:07 PM MST
Moon 7:50 PM MST (9/15) 7:27 AM MST (9/15)
Length of Visible Light 13h 17m
Length of Day
12h 25m
Full, 98% of the Moon is Illuminated
Sep 15
Full
Sep 21
Last Quarter
Sep 28
New
Oct 5
First Quarter
Oct 13
Full

Hourly Weather History & Observations

Time (MST) Temp. Dew Point Humidity Pressure Visibility Wind Dir Wind Speed Gust Speed Precip Events Conditions
12:15 AM 55.4 °F 28.4 °F 36% 30.19 in - SE 4.6 mph - N/A   Clear
12:35 AM 57.2 °F 28.4 °F 33% 30.19 in - SE 4.6 mph - N/A   Clear
12:55 AM 55.4 °F 26.6 °F 33% 30.19 in - SE 4.6 mph - N/A   Clear
1:15 AM 55.4 °F 28.4 °F 36% 30.20 in - Calm Calm - N/A   Clear
1:35 AM 57.2 °F 28.4 °F 33% 30.19 in - Calm Calm - N/A   Clear
1:55 AM 57.2 °F 26.6 °F 31% 30.19 in - SSE 4.6 mph - N/A   Clear
2:15 AM 59.0 °F 28.4 °F 31% 30.18 in - North - - N/A   Clear
2:35 AM 53.6 °F 28.4 °F 38% 30.18 in - Calm Calm - N/A   Clear
2:55 AM 55.4 °F 28.4 °F 36% 30.18 in - South 4.6 mph - N/A   Clear
3:15 AM 55.4 °F 28.4 °F 36% 30.17 in - Calm Calm - N/A   Clear
3:35 AM 51.8 °F 28.4 °F 41% 30.17 in - ESE 5.8 mph - N/A   Clear
3:55 AM 51.8 °F 28.4 °F 41% 30.17 in - SE 5.8 mph - N/A   Clear
4:15 AM 51.8 °F 28.4 °F 41% 30.17 in - SE 3.5 mph - N/A   Clear
4:55 AM 51.8 °F 28.4 °F 41% 30.17 in - SE 5.8 mph - N/A   Clear
5:15 AM 51.8 °F 28.4 °F 41% 30.17 in - SE 3.5 mph - N/A   Clear
5:35 AM 50.0 °F 28.4 °F 43% 30.18 in - SE 3.5 mph - N/A   Clear
5:55 AM 50.0 °F 28.4 °F 43% 30.18 in - ESE 8.1 mph - N/A   Clear
6:15 AM 50.0 °F 30.2 °F 47% 30.18 in 10.0 mi SE 3.5 mph - N/A   Clear
6:35 AM 51.8 °F 28.4 °F 41% 30.19 in 10.0 mi SE 4.6 mph - N/A   Clear
6:55 AM 55.4 °F 28.4 °F 36% 30.19 in 10.0 mi SE 5.8 mph - N/A   Clear
7:15 AM 59.0 °F 30.2 °F 34% 30.20 in 10.0 mi Calm Calm - N/A   Clear
7:35 AM 62.6 °F 32.0 °F 32% 30.20 in 10.0 mi Calm Calm - N/A   Clear
7:55 AM 68.0 °F 32.0 °F 26% 30.20 in 10.0 mi Calm Calm - N/A   Clear
8:15 AM 71.6 °F 32.0 °F 23% 30.20 in 10.0 mi Calm Calm - N/A   Clear
8:35 AM 73.4 °F 32.0 °F 22% 30.20 in 10.0 mi Calm Calm - N/A   Clear
8:55 AM 77.0 °F 32.0 °F 19% 30.20 in 10.0 mi Calm Calm - N/A   Clear
9:15 AM 80.6 °F 33.8 °F 18% 30.20 in 10.0 mi Calm Calm - N/A   Clear
9:35 AM 80.6 °F 39.2 °F 23% 30.20 in 10.0 mi Calm Calm - N/A   Clear
9:55 AM 80.6 °F 41.0 °F 24% 30.19 in 10.0 mi Calm Calm - N/A   Clear
10:15 AM 84.2 °F 41.0 °F 22% 30.19 in 10.0 mi Calm Calm - N/A   Clear
10:35 AM 84.2 °F 41.0 °F 22% 30.18 in 10.0 mi South 5.8 mph - N/A   Clear
10:55 AM 86.0 °F 37.4 °F 18% 30.18 in 10.0 mi SSW 3.5 mph - N/A   Clear
11:15 AM 86.0 °F 37.4 °F 18% 30.17 in 10.0 mi WSW 4.6 mph - N/A   Clear
11:35 AM 87.8 °F 37.4 °F 17% 30.16 in 10.0 mi West 3.5 mph - N/A   Clear
11:55 AM 87.8 °F 35.6 °F 16% 30.16 in 10.0 mi West 5.8 mph - N/A   Clear
12:15 PM 86.0 °F 33.8 °F 15% 30.15 in 10.0 mi Calm Calm - N/A   Scattered Clouds
12:35 PM 89.6 °F 35.6 °F 15% 30.15 in 10.0 mi ESE 4.6 mph - N/A   Clear
12:55 PM 89.6 °F 35.6 °F 15% 30.13 in 10.0 mi ESE 4.6 mph - N/A   Clear
1:15 PM 89.6 °F 35.6 °F 15% 30.12 in 10.0 mi North 3.5 mph - N/A   Clear
1:35 PM 91.4 °F 35.6 °F 14% 30.12 in 10.0 mi SW 10.4 mph 16.1 mph N/A   Clear
1:55 PM 89.6 °F 35.6 °F 15% 30.11 in 10.0 mi SSW 4.6 mph - N/A   Clear
2:15 PM 91.4 °F 37.4 °F 15% 30.09 in 10.0 mi ENE 5.8 mph - N/A   Clear
2:35 PM 91.4 °F 35.6 °F 14% 30.08 in 10.0 mi SSW 6.9 mph - N/A   Clear
2:55 PM 91.4 °F 35.6 °F 14% 30.07 in 10.0 mi Calm Calm - N/A   Scattered Clouds
3:15 PM 91.4 °F 35.6 °F 14% 30.06 in 10.0 mi SE 8.1 mph - N/A   Clear
3:35 PM 89.6 °F 35.6 °F 15% 30.05 in 10.0 mi Calm Calm - N/A   Scattered Clouds
3:55 PM 91.4 °F 35.6 °F 14% 30.05 in 10.0 mi South 5.8 mph - N/A   Scattered Clouds
4:15 PM 89.6 °F 35.6 °F 15% 30.05 in 10.0 mi South 5.8 mph - N/A   Clear
4:35 PM 91.4 °F 35.6 °F 14% 30.04 in 10.0 mi ESE 5.8 mph - N/A   Scattered Clouds
4:55 PM 91.4 °F 37.4 °F 15% 30.04 in 10.0 mi South 11.5 mph 18.4 mph N/A   Overcast
5:15 PM 86.0 °F 39.2 °F 19% 30.04 in 10.0 mi SSE 12.7 mph - N/A   Scattered Clouds
5:35 PM 86.0 °F 41.0 °F 20% 30.05 in 10.0 mi SSE 11.5 mph - N/A   Scattered Clouds
5:55 PM 84.2 °F 41.0 °F 22% 30.05 in 10.0 mi South 10.4 mph - N/A   Mostly Cloudy
6:15 PM 84.2 °F 41.0 °F 22% 30.05 in 10.0 mi South 11.5 mph 27.6 mph N/A   Mostly Cloudy
6:35 PM 82.4 °F 41.0 °F 23% 30.06 in 10.0 mi South 15.0 mph 25.3 mph N/A   Mostly Cloudy
6:55 PM 80.6 °F 42.8 °F 26% 30.06 in 10.0 mi SE 13.8 mph 19.6 mph N/A   Overcast
7:15 PM 80.6 °F 42.8 °F 26% 30.06 in - ESE 6.9 mph - N/A   Mostly Cloudy
7:35 PM 80.6 °F 42.8 °F 26% 30.07 in - South 10.4 mph 23.0 mph N/A   Mostly Cloudy
7:55 PM 80.6 °F 42.8 °F 26% 30.07 in - South 5.8 mph - N/A   Mostly Cloudy
8:15 PM 78.8 °F 42.8 °F 28% 30.08 in - Calm Calm - N/A   Overcast
8:35 PM 78.8 °F 42.8 °F 28% 30.08 in - SE 9.2 mph - N/A   Overcast
8:55 PM 77.0 °F 44.6 °F 32% 30.09 in - SE 9.2 mph - N/A   Mostly Cloudy
9:15 PM 73.4 °F 46.4 °F 38% 30.10 in - SE 9.2 mph - N/A   Clear
9:55 PM 68.0 °F 46.4 °F 46% 30.10 in - East 5.8 mph - N/A   Clear
10:15 PM 68.0 °F 46.4 °F 46% 30.10 in - ESE 5.8 mph - N/A   Clear
10:35 PM 69.8 °F 46.4 °F 43% 30.09 in - Calm Calm - N/A   Clear
10:55 PM 69.8 °F 46.4 °F 43% 30.10 in - East 3.5 mph - N/A   Clear
11:15 PM 68.0 °F 46.4 °F 46% 30.10 in - ESE 4.6 mph - N/A   Clear
11:35 PM 68.0 °F 46.4 °F 46% 30.09 in - ESE 8.1 mph - N/A   Clear
11:55 PM 68.0 °F 46.4 °F 46% 30.09 in - ESE 5.8 mph - N/A   Clear